Retour au catalogue

SCATHA AKM

ActifMEO
NORAD 29000·ROCKET BODY·🇺🇸 United States

Lancé Jan 30, 1979 depuis Cape Canaveral Space Force Station

Loading…

Prochains Passages (prochaines 24 heures)

TLE

FraisSource: Space-Track

Époque: Sep 14, 2026, 10:14 UTC

1 29000U 79007C   26257.42675117 -.00000253  00000-0  00000-0 0  9990
2 29000   9.4046 275.4099 1772670 142.7740  42.1372  1.01590311 48852

Suivez SCATHA AKM en temps réel avec AllMySat

Download on the App Store